Year,Month,Day,Hour,Minute,Value (Times are PST for temperature in C)
2008,01,30,13,03,4.00
2008,01,30,13,04,3.90
2008,01,30,13,05,3.90
2008,01,30,13,06,3.90
2008,01,30,13,07,3.90
2008,01,30,13,08,3.90
2008,01,30,13,09,3.90
2008,01,30,13,10,3.90
2008,01,30,13,11,3.90
2008,01,30,13,12,3.90
2008,01,30,13,13,3.90
2008,01,30,13,14,3.90
2008,01,30,13,15,3.90
2008,01,30,13,16,3.90
2008,01,30,13,17,4.00
2008,01,30,13,18,4.00
2008,01,30,13,19,4.00
2008,01,30,13,20,4.00
2008,01,30,13,21,4.00
2008,01,30,13,22,4.00
2008,01,30,13,23,4.10
2008,01,30,13,24,4.10
2008,01,30,13,25,4.00
2008,01,30,13,26,4.00
2008,01,30,13,27,4.00
2008,01,30,13,28,4.00
2008,01,30,13,29,4.00
2008,01,30,13,30,4.00
2008,01,30,13,31,4.00
2008,01,30,13,32,4.10
2008,01,30,13,33,4.10
2008,01,30,13,34,4.10
2008,01,30,13,35,4.10
2008,01,30,13,36,4.10
2008,01,30,13,37,4.10
2008,01,30,13,38,4.10
2008,01,30,13,39,4.10
2008,01,30,13,40,4.00
2008,01,30,13,41,4.00
2008,01,30,13,42,4.00
2008,01,30,13,43,4.00
2008,01,30,13,44,4.00
2008,01,30,13,45,4.00
2008,01,30,13,46,4.00
2008,01,30,13,47,4.00
2008,01,30,13,48,4.00
2008,01,30,13,49,4.00
2008,01,30,13,50,4.10
2008,01,30,13,51,4.00
2008,01,30,13,52,4.00
2008,01,30,13,53,4.00
2008,01,30,13,54,4.00
2008,01,30,13,55,4.00
2008,01,30,13,56,4.00
2008,01,30,13,57,4.10
2008,01,30,13,58,4.10
2008,01,30,13,59,4.10
2008,01,30,14,00,4.10
2008,01,30,14,01,4.10
2008,01,30,14,02,4.10
2008,01,30,14,03,4.10
2008,01,30,14,04,4.10
2008,01,30,14,05,4.10
2008,01,30,14,06,4.10
2008,01,30,14,07,4.10
2008,01,30,14,08,4.10
2008,01,30,14,09,4.10
2008,01,30,14,10,4.10
2008,01,30,14,11,4.10
2008,01,30,14,12,4.10
2008,01,30,14,13,4.10
2008,01,30,14,14,4.20
2008,01,30,14,15,4.20
2008,01,30,14,16,4.20
2008,01,30,14,17,4.20
2008,01,30,14,18,4.20
2008,01,30,14,19,4.20
2008,01,30,14,20,4.20
2008,01,30,14,21,4.20
2008,01,30,14,22,4.20
2008,01,30,14,23,4.30
2008,01,30,14,24,4.30
2008,01,30,14,25,4.30
2008,01,30,14,26,4.30
2008,01,30,14,27,4.30
2008,01,30,14,28,4.30
2008,01,30,14,29,4.40
2008,01,30,14,30,4.40
2008,01,30,14,31,4.30
2008,01,30,14,32,4.30
2008,01,30,14,33,4.30
2008,01,30,14,34,4.40
2008,01,30,14,35,4.40
2008,01,30,14,36,4.40
2008,01,30,14,37,4.40
2008,01,30,14,38,4.40
2008,01,30,14,39,4.30
2008,01,30,14,40,4.30
2008,01,30,14,41,4.30
2008,01,30,14,42,4.30
2008,01,30,14,43,4.30
2008,01,30,14,44,4.30
2008,01,30,14,45,4.40
2008,01,30,14,46,4.40
2008,01,30,14,47,4.40
2008,01,30,14,48,4.40
2008,01,30,14,49,4.30
2008,01,30,14,50,4.30
2008,01,30,14,51,4.30
2008,01,30,14,52,4.30
2008,01,30,14,53,4.20
2008,01,30,14,54,4.20
2008,01,30,14,55,4.20
2008,01,30,14,56,4.20
2008,01,30,14,57,4.20
2008,01,30,14,58,4.20
2008,01,30,14,59,4.20
2008,01,30,15,00,4.20
2008,01,30,15,01,4.20
2008,01,30,15,02,4.20
2008,01,30,15,03,4.20
2008,01,30,15,04,4.10
2008,01,30,15,05,4.10
2008,01,30,15,06,4.10
2008,01,30,15,07,4.10
2008,01,30,15,08,4.10
2008,01,30,15,09,4.10
2008,01,30,15,10,4.20
2008,01,30,15,11,4.20
2008,01,30,15,12,4.20
2008,01,30,15,13,4.20
2008,01,30,15,14,4.20
2008,01,30,15,15,4.20
2008,01,30,15,16,4.20
2008,01,30,15,17,4.20
2008,01,30,15,18,4.20
2008,01,30,15,19,4.20
2008,01,30,15,20,4.20
2008,01,30,15,21,4.20
2008,01,30,15,22,4.10
2008,01,30,15,23,4.10
2008,01,30,15,24,4.10
2008,01,30,15,25,4.10
2008,01,30,15,26,4.10
2008,01,30,15,27,4.10
2008,01,30,15,28,4.10
2008,01,30,15,29,4.10
2008,01,30,15,30,4.10
2008,01,30,15,31,4.10
2008,01,30,15,32,4.10
2008,01,30,15,33,4.10
2008,01,30,15,34,4.10
2008,01,30,15,35,4.10
2008,01,30,15,36,4.10
2008,01,30,15,37,4.10
2008,01,30,15,38,4.10
2008,01,30,15,39,4.10
2008,01,30,15,40,4.10
2008,01,30,15,41,4.10
2008,01,30,15,42,4.10
2008,01,30,15,43,4.00
2008,01,30,15,44,4.00
2008,01,30,15,45,4.00
2008,01,30,15,46,4.00
2008,01,30,15,47,4.00
2008,01,30,15,48,4.00
2008,01,30,15,49,4.00
2008,01,30,15,50,4.00
2008,01,30,15,51,3.90
2008,01,30,15,52,3.90
2008,01,30,15,53,3.90
2008,01,30,15,54,3.90
2008,01,30,15,55,3.90
2008,01,30,15,56,3.90
2008,01,30,15,57,3.90
2008,01,30,15,58,3.90
2008,01,30,15,59,3.90
2008,01,30,16,00,3.80
2008,01,30,16,01,3.80
2008,01,30,16,02,3.80
2008,01,30,16,03,3.80
2008,01,30,16,04,3.90
2008,01,30,16,05,3.90
2008,01,30,16,06,3.90
2008,01,30,16,07,3.90
2008,01,30,16,08,3.80
2008,01,30,16,09,3.80
2008,01,30,16,10,3.80
2008,01,30,16,11,3.80
2008,01,30,16,12,3.80
2008,01,30,16,13,3.80
2008,01,30,16,14,3.80
2008,01,30,16,15,3.70
2008,01,30,16,16,3.70
2008,01,30,16,17,3.70
2008,01,30,16,18,3.70
2008,01,30,16,19,3.70
2008,01,30,16,20,3.70
2008,01,30,16,21,3.70
2008,01,30,16,22,3.60
2008,01,30,16,23,3.60
2008,01,30,16,24,3.60
2008,01,30,16,25,3.60
2008,01,30,16,26,3.60
2008,01,30,16,27,3.60
2008,01,30,16,28,3.60
2008,01,30,16,29,3.50
2008,01,30,16,30,3.50
2008,01,30,16,31,3.50
2008,01,30,16,32,3.40
2008,01,30,16,33,3.40
2008,01,30,16,34,3.40
2008,01,30,16,35,3.40
2008,01,30,16,36,3.40
2008,01,30,16,37,3.40
2008,01,30,16,38,3.40
2008,01,30,16,39,3.40
2008,01,30,16,40,3.40
2008,01,30,16,41,3.40
2008,01,30,16,42,3.40
2008,01,30,16,43,3.40
2008,01,30,16,44,3.40
2008,01,30,16,45,3.40
2008,01,30,16,46,3.30
2008,01,30,16,47,3.30
2008,01,30,16,48,3.40
2008,01,30,16,49,3.30
2008,01,30,16,50,3.30
2008,01,30,16,51,3.30
2008,01,30,16,52,3.30
2008,01,30,16,53,3.30
2008,01,30,16,54,3.30
2008,01,30,16,55,3.30
2008,01,30,16,56,3.30
2008,01,30,16,57,3.30
2008,01,30,16,58,3.30
2008,01,30,16,59,3.30
2008,01,30,17,00,3.30
2008,01,30,17,01,3.30
2008,01,30,17,02,3.30
2008,01,30,17,03,3.30
2008,01,30,17,04,3.30
2008,01,30,17,05,3.30
2008,01,30,17,06,3.30
2008,01,30,17,07,3.30
2008,01,30,17,08,3.20
2008,01,30,17,09,3.20
2008,01,30,17,10,3.20
2008,01,30,17,11,3.20
2008,01,30,17,12,3.20
2008,01,30,17,13,3.20
2008,01,30,17,14,3.20
2008,01,30,17,15,3.20
2008,01,30,17,16,3.20
2008,01,30,17,17,3.20
2008,01,30,17,18,3.20
2008,01,30,17,19,3.20
2008,01,30,17,20,3.20
2008,01,30,17,21,3.20
2008,01,30,17,22,3.20
2008,01,30,17,23,3.20
2008,01,30,17,24,3.20
2008,01,30,17,25,3.20
2008,01,30,17,26,3.20
2008,01,30,17,27,3.20
2008,01,30,17,28,3.20
2008,01,30,17,29,3.10
2008,01,30,17,30,3.10
2008,01,30,17,31,3.10
2008,01,30,17,32,3.10
2008,01,30,17,33,3.10
2008,01,30,17,34,3.10
2008,01,30,17,35,3.10
2008,01,30,17,36,3.10
2008,01,30,17,37,3.10
2008,01,30,17,38,3.10
2008,01,30,17,39,3.10
2008,01,30,17,40,3.10
2008,01,30,17,41,3.10
2008,01,30,17,42,3.10
2008,01,30,17,43,3.10
2008,01,30,17,44,3.10
2008,01,30,17,45,3.10
2008,01,30,17,46,3.10
2008,01,30,17,47,3.10
2008,01,30,17,48,3.10
2008,01,30,17,49,3.10
2008,01,30,17,50,3.10
2008,01,30,17,51,3.10
2008,01,30,17,52,3.10
2008,01,30,17,53,3.10
2008,01,30,17,54,3.10
2008,01,30,17,55,3.10
2008,01,30,17,56,3.10
2008,01,30,17,57,3.10
2008,01,30,17,58,3.10
2008,01,30,17,59,3.10
2008,01,30,18,00,3.10
2008,01,30,18,01,3.10
2008,01,30,18,02,3.10
2008,01,30,18,03,3.10
2008,01,30,18,04,3.10
2008,01,30,18,05,3.10
2008,01,30,18,06,3.10
2008,01,30,18,07,3.10
2008,01,30,18,08,3.10
2008,01,30,18,09,3.10
2008,01,30,18,10,3.10
2008,01,30,18,11,3.10
2008,01,30,18,12,3.10
2008,01,30,18,13,3.10
2008,01,30,18,14,3.10
2008,01,30,18,15,3.10
2008,01,30,18,16,3.10
2008,01,30,18,17,3.10
2008,01,30,18,18,3.10
2008,01,30,18,19,3.10
2008,01,30,18,20,3.10
2008,01,30,18,21,3.10
2008,01,30,18,22,3.10
2008,01,30,18,23,3.10
2008,01,30,18,24,3.10
2008,01,30,18,25,3.10
2008,01,30,18,26,3.10
2008,01,30,18,27,3.00
2008,01,30,18,28,3.00
2008,01,30,18,29,3.00
2008,01,30,18,30,3.00
2008,01,30,18,31,3.00
2008,01,30,18,32,3.00
2008,01,30,18,33,3.00
2008,01,30,18,34,3.00
2008,01,30,18,35,2.90
2008,01,30,18,36,2.90
2008,01,30,18,37,2.90
2008,01,30,18,38,2.90
2008,01,30,18,39,2.90
2008,01,30,18,40,2.90
2008,01,30,18,41,2.90
2008,01,30,18,42,2.90
2008,01,30,18,43,2.90
2008,01,30,18,44,2.90
2008,01,30,18,45,2.90
2008,01,30,18,46,2.90
2008,01,30,18,47,2.90
2008,01,30,18,48,2.90
2008,01,30,18,49,2.90
2008,01,30,18,50,2.90
2008,01,30,18,51,2.90
2008,01,30,18,52,2.90
2008,01,30,18,53,2.90
2008,01,30,18,54,2.80
2008,01,30,18,55,2.80
2008,01,30,18,56,2.80
2008,01,30,18,57,2.80
2008,01,30,18,58,2.80
2008,01,30,18,59,2.80
2008,01,30,19,00,2.80
2008,01,30,19,01,2.80
2008,01,30,19,02,2.80
2008,01,30,19,03,2.80
2008,01,30,19,04,2.80
2008,01,30,19,05,2.80
2008,01,30,19,06,2.70
2008,01,30,19,07,2.70
2008,01,30,19,08,2.70
2008,01,30,19,09,2.70
2008,01,30,19,10,2.70
2008,01,30,19,11,2.70
2008,01,30,19,12,2.70
2008,01,30,19,13,2.70
2008,01,30,19,14,2.70
2008,01,30,19,15,2.70
2008,01,30,19,16,2.70
2008,01,30,19,17,2.70
2008,01,30,19,18,2.70
2008,01,30,19,19,2.60
2008,01,30,19,20,2.70
2008,01,30,19,21,2.60
2008,01,30,19,22,2.60
2008,01,30,19,23,2.60
2008,01,30,19,24,2.60
2008,01,30,19,25,2.60
2008,01,30,19,26,2.60
2008,01,30,19,27,2.60
2008,01,30,19,28,2.60
2008,01,30,19,29,2.50
2008,01,30,19,30,2.50
2008,01,30,19,31,2.50
2008,01,30,19,32,2.50
2008,01,30,19,33,2.50
2008,01,30,19,34,2.50
2008,01,30,19,35,2.40
2008,01,30,19,36,2.40
2008,01,30,19,37,2.40
2008,01,30,19,38,2.40
2008,01,30,19,39,2.40
2008,01,30,19,40,2.40
2008,01,30,19,41,2.40
2008,01,30,19,42,2.40
2008,01,30,19,43,2.40
2008,01,30,19,44,2.30
2008,01,30,19,45,2.30
2008,01,30,19,46,2.30
2008,01,30,19,47,2.30
2008,01,30,19,48,2.30
2008,01,30,19,49,2.30
2008,01,30,19,50,2.30
2008,01,30,19,51,2.30
2008,01,30,19,52,2.30
2008,01,30,19,53,2.30
2008,01,30,19,54,2.30
2008,01,30,19,55,2.30
2008,01,30,19,56,2.30
2008,01,30,19,57,2.30
2008,01,30,19,58,2.30
2008,01,30,19,59,2.30
2008,01,30,20,00,2.30
2008,01,30,20,01,2.20
2008,01,30,20,02,2.20
2008,01,30,20,03,2.20
2008,01,30,20,04,2.20
2008,01,30,20,05,2.20
2008,01,30,20,06,2.20
2008,01,30,20,07,2.20
2008,01,30,20,08,2.20
2008,01,30,20,09,2.20
2008,01,30,20,10,2.20
2008,01,30,20,11,2.20
2008,01,30,20,12,2.20
2008,01,30,20,13,2.20
2008,01,30,20,14,2.20
2008,01,30,20,15,2.20
2008,01,30,20,16,2.20
2008,01,30,20,17,2.20
2008,01,30,20,18,2.20
2008,01,30,20,19,2.20
2008,01,30,20,20,2.20
2008,01,30,20,21,2.10
2008,01,30,20,22,2.10
2008,01,30,20,23,2.10
2008,01,30,20,24,2.10
2008,01,30,20,25,2.10
2008,01,30,20,26,2.00
2008,01,30,20,27,2.00
2008,01,30,20,28,2.00
2008,01,30,20,29,2.00
2008,01,30,20,30,2.00
2008,01,30,20,31,2.00
2008,01,30,20,32,2.00
2008,01,30,20,33,1.90
2008,01,30,20,34,1.90
2008,01,30,20,35,1.90
2008,01,30,20,36,1.90
2008,01,30,20,37,1.90
2008,01,30,20,38,1.90
2008,01,30,20,39,1.90
2008,01,30,20,40,1.90
2008,01,30,20,41,1.90
2008,01,30,20,42,1.90
2008,01,30,20,43,1.90
2008,01,30,20,44,1.90
2008,01,30,20,45,1.90
2008,01,30,20,46,1.90
2008,01,30,20,47,1.90
2008,01,30,20,48,1.90
2008,01,30,20,49,1.90
2008,01,30,20,50,1.90
2008,01,30,20,51,1.90
2008,01,30,20,52,1.90
2008,01,30,20,53,1.90
2008,01,30,20,54,1.90
2008,01,30,20,55,1.90
2008,01,30,20,56,1.90
2008,01,30,20,57,1.90
2008,01,30,20,58,1.90
2008,01,30,20,59,1.90
2008,01,30,21,00,1.90
2008,01,30,21,01,1.90
2008,01,30,21,02,2.00
2008,01,30,21,03,2.00
2008,01,30,21,04,2.00
2008,01,30,21,05,2.00
2008,01,30,21,06,2.00
2008,01,30,21,07,2.00
2008,01,30,21,08,2.10
2008,01,30,21,09,2.10
2008,01,30,21,10,2.10
2008,01,30,21,11,2.10
2008,01,30,21,12,2.10
2008,01,30,21,13,2.10
2008,01,30,21,14,2.10
2008,01,30,21,15,2.10
2008,01,30,21,16,2.10
2008,01,30,21,17,2.10
2008,01,30,21,18,2.10
2008,01,30,21,19,2.10
2008,01,30,21,20,2.10
2008,01,30,21,21,2.10
2008,01,30,21,22,2.10
2008,01,30,21,23,2.10
2008,01,30,21,24,2.10
2008,01,30,21,25,2.10
2008,01,30,21,26,2.10
2008,01,30,21,27,2.10
2008,01,30,21,28,2.10
2008,01,30,21,29,2.10
2008,01,30,21,30,2.10
2008,01,30,21,31,2.10
2008,01,30,21,32,2.10
2008,01,30,21,33,2.10
2008,01,30,21,34,2.10
2008,01,30,21,35,2.20
2008,01,30,21,36,2.20
2008,01,30,21,37,2.20
2008,01,30,21,38,2.20
2008,01,30,21,39,2.20
2008,01,30,21,40,2.20
2008,01,30,21,41,2.20
2008,01,30,21,42,2.20
2008,01,30,21,43,2.20
2008,01,30,21,44,2.30
2008,01,30,21,45,2.30
2008,01,30,21,46,2.30
2008,01,30,21,47,2.40
2008,01,30,21,48,2.40
2008,01,30,21,49,2.40
2008,01,30,21,50,2.40
2008,01,30,21,51,2.40
2008,01,30,21,52,2.40
2008,01,30,21,53,2.50
2008,01,30,21,54,2.50
2008,01,30,21,55,2.50
2008,01,30,21,56,2.60
2008,01,30,21,57,2.60
2008,01,30,21,58,2.60
2008,01,30,21,59,2.60
2008,01,30,22,00,2.60
2008,01,30,22,01,2.60
2008,01,30,22,02,2.60
2008,01,30,22,03,2.60
2008,01,30,22,04,2.60
2008,01,30,22,05,2.60
2008,01,30,22,06,2.70
2008,01,30,22,07,2.70
2008,01,30,22,08,2.70
2008,01,30,22,09,2.70
2008,01,30,22,10,2.70
2008,01,30,22,11,2.80
2008,01,30,22,12,2.80
2008,01,30,22,13,2.80
2008,01,30,22,14,2.80
2008,01,30,22,15,2.80
2008,01,30,22,16,2.80
2008,01,30,22,17,2.80
2008,01,30,22,18,2.80
2008,01,30,22,19,2.80
2008,01,30,22,20,2.80
2008,01,30,22,21,2.80
2008,01,30,22,22,2.80
2008,01,30,22,23,2.90
2008,01,30,22,24,2.90
2008,01,30,22,25,2.90
2008,01,30,22,26,2.90
2008,01,30,22,27,2.90
2008,01,30,22,28,2.90
2008,01,30,22,29,3.00
2008,01,30,22,30,3.00
2008,01,30,22,31,3.00
2008,01,30,22,32,3.00
2008,01,30,22,33,3.00
2008,01,30,22,34,3.00
2008,01,30,22,35,3.10
2008,01,30,22,36,3.10
2008,01,30,22,37,3.10
2008,01,30,22,38,3.10
2008,01,30,22,39,3.10
2008,01,30,22,40,3.10
2008,01,30,22,41,3.10
2008,01,30,22,42,3.10
2008,01,30,22,43,3.20
2008,01,30,22,44,3.20
2008,01,30,22,45,3.20
2008,01,30,22,46,3.20
2008,01,30,22,47,3.20
2008,01,30,22,48,3.20
2008,01,30,22,49,3.10
2008,01,30,22,50,3.10
2008,01,30,22,51,3.10
2008,01,30,22,52,3.10
2008,01,30,22,53,3.10
2008,01,30,22,54,3.10
2008,01,30,22,55,3.10
2008,01,30,22,56,3.10
2008,01,30,22,57,3.10
2008,01,30,22,58,3.10
2008,01,30,22,59,3.10
2008,01,30,23,00,3.10
2008,01,30,23,01,3.10
2008,01,30,23,02,3.10
2008,01,30,23,03,3.10
2008,01,30,23,04,3.10
2008,01,30,23,05,3.10
2008,01,30,23,06,3.10
2008,01,30,23,07,3.10
2008,01,30,23,08,3.00
2008,01,30,23,09,3.00
2008,01,30,23,10,3.00
2008,01,30,23,11,3.00
2008,01,30,23,12,2.90
2008,01,30,23,13,2.90
2008,01,30,23,14,2.90
2008,01,30,23,15,2.90
2008,01,30,23,16,2.80
2008,01,30,23,17,2.80
2008,01,30,23,18,2.80
2008,01,30,23,19,2.80
2008,01,30,23,20,2.80
2008,01,30,23,21,2.80
2008,01,30,23,22,2.80
2008,01,30,23,23,2.70
2008,01,30,23,24,2.70
2008,01,30,23,25,2.70
2008,01,30,23,26,2.70
2008,01,30,23,27,2.70
2008,01,30,23,28,2.70
2008,01,30,23,29,2.60
2008,01,30,23,30,2.60
2008,01,30,23,31,2.60
2008,01,30,23,32,2.60
2008,01,30,23,33,2.60
2008,01,30,23,34,2.60
2008,01,30,23,35,2.60
2008,01,30,23,36,2.50
2008,01,30,23,37,2.50
2008,01,30,23,38,2.60
2008,01,30,23,39,2.60
2008,01,30,23,40,2.60
2008,01,30,23,41,2.70
2008,01,30,23,42,2.70
2008,01,30,23,43,2.70
2008,01,30,23,44,2.70
2008,01,30,23,45,2.70
2008,01,30,23,46,2.80
2008,01,30,23,47,2.80
2008,01,30,23,48,2.90
2008,01,30,23,49,3.00
2008,01,30,23,50,3.00
2008,01,30,23,51,3.10
2008,01,30,23,52,3.10
2008,01,30,23,53,3.10
2008,01,30,23,54,3.10
2008,01,30,23,55,3.20
2008,01,30,23,56,3.20
2008,01,30,23,57,3.20
2008,01,30,23,58,3.20
2008,01,30,23,59,3.20
